| time (UTC) | temp C | wind direction | speed KPH | gust KPH | rain 1hr cm | rain 24hr cm | rain mn cm | humidity % | barometer mb |
| 20260509024601 | 17 | 205 | 1.6 | 6.4 | 0.00 | 0.00 | 0.00 | 53 | 1011.6 |
| 20260509023114 | 17 | 205 | 4.8 | 11.3 | 0.00 | 0.00 | 0.00 | 53 | 1011.5 |
| 20260509021558 | 17 | 194 | 4.8 | 11.3 | 0.00 | 0.00 | 0.00 | 52 | 1011.4 |
| 20260509020100 | 17 | 178 | 6.4 | 12.9 | 0.00 | 0.00 | 0.00 | 51 | 1011.3 |
| 20260509014558 | 17 | 203 | 3.2 | 11.3 | 0.00 | 0.00 | 0.00 | 53 | 1011.4 |
| 20260509013103 | 17 | 217 | 1.6 | 6.4 | 0.00 | 0.00 | 0.00 | 53 | 1011.3 |
| 20260509011559 | 17 | 217 | 1.6 | 3.2 | 0.00 | 0.00 | 0.00 | 51 | 1011.3 |
| 20260509004609 | 18 | 200 | 3.2 | 12.9 | 0.00 | 0.00 | 0.00 | 51 | 1011.2 |
| 20260509003104 | 18 | 181 | 6.4 | 14.5 | 0.00 | 0.00 | 0.00 | 48 | 1011.0 |
| 20260509001559 | 18 | 213 | 4.8 | 17.7 | 0.00 | 0.00 | 0.00 | 47 | 1011.0 |
| 20260509000108 | 18 | 204 | 6.4 | 17.7 | 0.00 | 0.00 | 0.00 | 47 | 1011.1 |
| 20260508234600 | 18 | 196 | 6.4 | 16.1 | 0.00 | 0.00 | 0.00 | 47 | 1011.1 |
| 20260508233100 | 19 | 194 | 4.8 | 12.9 | 0.00 | 0.00 | 0.00 | 47 | 1011.1 |
| 20260508231600 | 19 | 199 | 6.4 | 17.7 | 0.00 | 0.00 | 0.00 | 46 | 1011.1 |
| 20260508230127 | 19 | 200 | 4.8 | 17.7 | 0.00 | 0.00 | 0.00 | 45 | 1011.2 |
| 20260508224604 | 19 | 201 | 8.0 | 19.3 | 0.00 | 0.00 | 0.00 | 46 | 1011.1 |
| 20260508223058 | 20 | 201 | 14.5 | 29.0 | 0.00 | 0.00 | 0.00 | 43 | 1011.0 |
| 20260508221559 | 20 | 184 | 12.9 | 27.4 | 0.00 | 0.00 | 0.00 | 45 | 1010.9 |
| 20260508220124 | 20 | 169 | 16.1 | 24.1 | 0.00 | 0.00 | 0.00 | 45 | 1010.7 |
| 20260508214558 | 20 | 168 | 9.7 | 25.7 | 0.00 | 0.00 | 0.00 | 44 | 1010.9 |
| 20260508213101 | 20 | 180 | 19.3 | 32.2 | 0.00 | 0.00 | 0.00 | 41 | 1010.9 |
| 20260508211559 | 21 | 192 | 16.1 | 29.0 | 0.00 | 0.00 | 0.00 | 42 | 1011.0 |
| 20260508210059 | 20 | 197 | 9.7 | 22.5 | 0.00 | 0.00 | 0.00 | 44 | 1011.4 |
| 20260508204606 | 20 | 334 | 19.3 | 33.8 | 0.00 | 0.00 | 0.00 | 42 | 1011.6 |
| 20260508203058 | 20 | 184 | 9.7 | 25.7 | 0.00 | 0.00 | 0.00 | 41 | 1011.9 |
| 20260508201601 | 21 | 211 | 11.3 | 25.7 | 0.00 | 0.00 | 0.00 | 41 | 1011.9 |
| 20260508194601 | 20 | 190 | 14.5 | 25.7 | 0.00 | 0.00 | 0.00 | 40 | 1012.4 |
| 20260508193107 | 20 | 229 | 17.7 | 30.6 | 0.00 | 0.00 | 0.00 | 43 | 1012.4 |
| 20260508191600 | 21 | 195 | 14.5 | 32.2 | 0.00 | 0.00 | 0.00 | 39 | 1012.5 |
| 20260508190109 | 21 | 174 | 6.4 | 27.4 | 0.00 | 0.00 | 0.00 | 40 | 1012.7 |
| 20260508184558 | 20 | 215 | 14.5 | 29.0 | 0.00 | 0.00 | 0.00 | 46 | 1012.9 |
| 20260508183103 | 20 | 203 | 20.9 | 33.8 | 0.00 | 0.00 | 0.00 | 43 | 1013.1 |
| 20260508181610 | 20 | 174 | 11.3 | 32.2 | 0.00 | 0.00 | 0.00 | 43 | 1013.4 |
| 20260508180107 | 20 | 218 | 19.3 | 30.6 | 0.00 | 0.00 | 0.00 | 41 | 1013.8 |
| 20260508174619 | 20 | 205 | 20.9 | 38.6 | 0.00 | 0.00 | 0.00 | 42 | 1014.0 |
| 20260508173101 | 20 | 169 | 12.9 | 29.0 | 0.00 | 0.00 | 0.00 | 43 | 1014.3 |
| 20260508171558 | 19 | 316 | 9.7 | 27.4 | 0.00 | 0.00 | 0.00 | 42 | 1014.5 |
| 20260508170105 | 19 | 201 | 17.7 | 35.4 | 0.00 | 0.00 | 0.00 | 41 | 1014.9 |
| 20260508164559 | 19 | 207 | 9.7 | 19.3 | 0.00 | 0.00 | 0.00 | 48 | 1015.1 |
| 20260508163059 | 19 | 182 | 9.7 | 25.7 | 0.00 | 0.00 | 0.00 | 44 | 1015.4 |
| 20260508161558 | 18 | 208 | 12.9 | 27.4 | 0.00 | 0.00 | 0.00 | 48 | 1015.6 |
| 20260508160104 | 18 | 206 | 8.0 | 30.6 | 0.00 | 0.00 | 0.00 | 48 | 1015.6 |
| 20260508154559 | 18 | 251 | 4.8 | 19.3 | 0.00 | 0.00 | 0.00 | 46 | 1015.8 |
| 20260508153103 | 17 | 176 | 11.3 | 22.5 | 0.00 | 0.00 | 0.00 | 50 | 1016.0 |
| 20260508151603 | 17 | 220 | 9.7 | 27.4 | 0.00 | 0.00 | 0.00 | 47 | 1016.3 |
| 20260508150059 | 17 | 204 | 11.3 | 24.1 | 0.00 | 0.00 | 0.00 | 49 | 1016.4 |
| 20260508144607 | 16 | 289 | 6.4 | 22.5 | 0.00 | 0.00 | 0.00 | 52 | 1016.3 |
| 20260508143100 | 15 | 188 | 11.3 | 24.1 | 0.00 | 0.00 | 0.00 | 52 | 1016.4 |
| 20260508141601 | 14 | 222 | 8.0 | 20.9 | 0.00 | 0.00 | 0.00 | 56 | 1016.5 |
| 20260508140100 | 13 | 205 | 11.3 | 22.5 | 0.00 | 0.00 | 0.00 | 57 | 1016.6 |
| 20260508134616 | 12 | 200 | 6.4 | 17.7 | 0.00 | 0.00 | 0.00 | 64 | 1016.7 |
| 20260508133058 | 11 | 207 | 4.8 | 17.7 | 0.00 | 0.00 | 0.00 | 63 | 1016.6 |
| 20260508131601 | 11 | 190 | 4.8 | 19.3 | 0.00 | 0.00 | 0.00 | 63 | 1016.7 |
| 20260508130057 | 10 | 215 | 9.7 | 22.5 | 0.00 | 0.00 | 0.00 | 64 | 1016.6 |
| 20260508124600 | 10 | 191 | 9.7 | 20.9 | 0.00 | 0.00 | 0.00 | 65 | 1016.6 |
| 20260508123108 | 9 | 211 | 8.0 | 19.3 | 0.00 | 0.00 | 0.00 | 69 | 1016.4 |
| 20260508121559 | 8 | 195 | 8.0 | 16.1 | 0.00 | 0.00 | 0.00 | 70 | 1016.4 |
| 20260508120058 | 7 | 174 | 8.0 | 17.7 | 0.00 | 0.00 | 0.00 | 73 | 1016.4 |
| 20260508114558 | 7 | 219 | 8.0 | 14.5 | 0.00 | 0.03 | 0.00 | 75 | 1016.3 |
| 20260508113105 | 6 | 192 | 4.8 | 12.9 | 0.00 | 0.03 | 0.00 | 77 | 1016.1 |
| 20260508111557 | 6 | 199 | 6.4 | 11.3 | 0.00 | 0.03 | 0.00 | 77 | 1016.1 |
| 20260508110057 | 6 | 190 | 4.8 | 9.7 | 0.00 | 0.03 | 0.00 | 77 | 1016.0 |
| 20260508104605 | 6 | 205 | 4.8 | 12.9 | 0.00 | 0.03 | 0.00 | 77 | 1015.9 |
| 20260508103059 | 6 | 199 | 3.2 | 6.4 | 0.00 | 0.03 | 0.00 | 79 | 1015.9 |
| 20260508101559 | 6 | 197 | 4.8 | 9.7 | 0.00 | 0.03 | 0.00 | 81 | 1015.8 |
| 20260508100059 | 5 | 0 | 0.0 | 0.0 | 0.00 | 0.03 | 0.00 | 86 | 1016.0 |
| 20260508094616 | 4 | 0 | 0.0 | 0.0 | 0.00 | 0.03 | 0.00 | 85 | 1015.8 |
| 20260508093058 | 4 | 0 | 0.0 | 0.0 | 0.00 | 0.03 | 0.00 | 85 | 1016.0 |
| 20260508091559 | 4 | 0 | 0.0 | 0.0 | 0.00 | 0.03 | 0.00 | 84 | 1015.7 |
| 20260508090057 | 5 | 0 | 0.0 | 0.0 | 0.00 | 0.03 | 0.00 | 84 | 1015.8 |
| 20260508084558 | 5 | 0 | 0.0 | 0.0 | 0.00 | 0.03 | 0.00 | 83 | 1015.9 |
| 20260508083100 | 5 | 0 | 0.0 | 0.0 | 0.00 | 0.03 | 0.00 | 83 | 1015.8 |
| 20260508081619 | 5 | 0 | 0.0 | 0.0 | 0.00 | 0.03 | 0.00 | 82 | 1015.7 |
| 20260508080101 | 5 | 0 | 0.0 | 0.0 | 0.00 | 0.03 | 0.00 | 80 | 1015.6 |
| 20260508074558 | 6 | 0 | 0.0 | 0.0 | 0.00 | 0.03 | 0.00 | 79 | 1015.7 |
| 20260508073059 | 6 | 0 | 0.0 | 0.0 | 0.00 | 0.03 | 0.00 | 79 | 1015.6 |
| 20260508071606 | 6 | 0 | 0.0 | 3.2 | 0.00 | 0.03 | 0.00 | 80 | 1015.7 |
| 20260508070105 | 6 | 230 | 1.6 | 3.2 | 0.00 | 0.03 | 0.00 | 78 | 1015.8 |
| 20260508064601 | 6 | 0 | 0.0 | 0.0 | 0.00 | 0.03 | 0.00 | 75 | 1016.1 |
| 20260508063108 | 7 | 0 | 0.0 | 1.6 | 0.00 | 0.03 | 0.00 | 72 | 1016.3 |
| 20260508061559 | 7 | 230 | 1.6 | 3.2 | 0.00 | 0.03 | 0.00 | 72 | 1016.5 |
| 20260508060106 | 7 | 0 | 0.0 | 4.8 | 0.00 | 0.03 | 0.00 | 71 | 1016.6 |
| 20260508054558 | 7 | 230 | 1.6 | 4.8 | 0.00 | 0.03 | 0.00 | 69 | 1016.5 |
| 20260508053103 | 7 | 231 | 1.6 | 6.4 | 0.00 | 0.03 | 0.00 | 70 | 1016.5 |
| 20260508051600 | 6 | 253 | 1.6 | 4.8 | 0.00 | 0.03 | 0.00 | 77 | 1016.5 |
| 20260508050105 | 6 | 0 | 0.0 | 0.0 | 0.00 | 0.03 | 0.00 | 81 | 1016.4 |
| 20260508044600 | 6 | 0 | 0.0 | 0.0 | 0.00 | 0.03 | 0.00 | 78 | 1016.5 |
| 20260508043105 | 6 | 0 | 0.0 | 0.0 | 0.00 | 0.03 | 0.00 | 78 | 1016.5 |
| 20260508041600 | 6 | 0 | 0.0 | 0.0 | 0.00 | 0.03 | 0.00 | 82 | 1016.5 |
| 20260508040105 | 6 | 0 | 0.0 | 0.0 | 0.00 | 0.03 | 0.00 | 83 | 1016.4 |
| 20260508034648 | 6 | 0 | 0.0 | 0.0 | 0.00 | 0.03 | 0.03 | 82 | 1016.5 |
| 20260508033057 | 7 | 0 | 0.0 | 0.0 | 0.00 | 0.03 | 0.03 | 81 | 1016.6 |
| 20260508031559 | 7 | 0 | 0.0 | 0.0 | 0.00 | 0.03 | 0.03 | 83 | 1016.5 |
| 20260508030104 | 7 | 0 | 0.0 | 0.0 | 0.00 | 0.03 | 0.03 | 81 | 1016.6 |